Ogden, UT

2:30 AM MDT on October 22, 2017 (GMT -0600)
Ogden-Hinckley

Weather History for KOGD - May, 2014

Change the Weather History Date:

Tuesday, May 6, 2014

  Actual Average Record
Temperature  
Mean Temperature 54 °F -  
Max Temperature 63 °F 69 °F 90 °F (1934)
Min Temperature 46 °F 43 °F 25 °F (1965)
Degree Days  
Heating Degree Days 11    
Growing Degree Days 4 (Base 50)    
Moisture  
Dew Point 37 °F    
Average Humidity 55    
Maximum Humidity 80    
Minimum Humidity 38    
Precipitation  
Precipitation 0.08 in - - ()
Sea Level Pressure  
Sea Level Pressure 29.54 in    
Wind  
Wind Speed 6 mph (WSW)    
Max Wind Speed 18 mph    
Max Gust Speed 25 mph    
Visibility 10 miles    
Events Rain    
Averages and records for this station are not official NWS values.
T = Trace of Precipitation, MM = Missing Value Source: NWS Daily Summary

Daily Weather History Graph

Daily Weather History Graph

Search for Another Location

Airport or City:

Trip Planner

Search our weather history database for the weather conditions in past years. The results will help you decide how hot, cold, wet, or windy it might be!

Date:

Astronomy

May. 06, 2014 Rise Set
Actual Time 6:19 AM MDT 8:30 PM MDT
Civil Twilight 5:48 AM MDT 9:01 PM MDT
Nautical Twilight 5:11 AM MDT 9:38 PM MDT
Astronomical Twilight 4:30 AM MDT 10:20 PM MDT
Moon 12:39 PM MDT (5/6) 1:51 AM MDT (5/6)
Length of Visible Light 15h 12m
Length of Day
14h 11m
Waxing Crescent, 46% of the Moon is Illuminated
May 6
Waxing Crescent
May 6
First Quarter
May 14
Full
May 21
Last Quarter
May 28
New

Hourly Weather History & Observations

Time (MDT) Temp. Dew Point Humidity Pressure Visibility Wind Dir Wind Speed Gust Speed Precip Events Conditions
12:53 AM 51.1 °F 35.1 °F 54% 29.59 in 10.0 mi Calm Calm - N/A   Clear
1:53 AM 51.1 °F 35.1 °F 54% 29.55 in 10.0 mi SSW 4.6 mph - N/A   Clear
5:53 AM 48.0 °F 32.0 °F 54% 29.48 in 10.0 mi South 5.8 mph - N/A   Clear
6:53 AM 48.0 °F 32.0 °F 54% 29.48 in 10.0 mi SSE 10.4 mph - N/A   Clear
8:53 AM 55.0 °F 39.0 °F 55% 29.49 in 10.0 mi South 10.4 mph - N/A   Clear
9:53 AM 55.9 °F 39.9 °F 55% 29.50 in 10.0 mi SSW 5.8 mph - N/A   Clear
10:53 AM 61.0 °F 39.0 °F 44% 29.49 in 10.0 mi Variable 3.5 mph - N/A   Clear
11:53 AM 61.0 °F 39.0 °F 44% 29.48 in 10.0 mi WNW 9.2 mph - N/A   Clear
12:53 PM 60.1 °F 39.9 °F 47% 29.49 in 10.0 mi West 8.1 mph - N/A   Clear
1:53 PM 62.1 °F 37.0 °F 39% 29.48 in 10.0 mi West 10.4 mph - N/A   Partly Cloudy
2:53 PM 59.0 °F 36.0 °F 42% 29.52 in 10.0 mi SW 10.4 mph - N/A   Mostly Cloudy
3:53 PM 59.0 °F 33.1 °F 38% 29.52 in 10.0 mi West 12.7 mph 23.0 mph N/A   Mostly Cloudy
4:53 PM 57.9 °F 34.0 °F 41% 29.51 in 10.0 mi WNW 10.4 mph - N/A   Overcast
5:53 PM 57.9 °F 33.1 °F 39% 29.52 in 10.0 mi NNW 9.2 mph - N/A   Overcast
6:53 PM 53.1 °F 36.0 °F 52% 29.58 in 8.0 mi West 11.5 mph 25.3 mph 0.00 in Rain Light Rain
7:53 PM 50.0 °F 39.0 °F 66% 29.60 in 10.0 mi West 6.9 mph - 0.02 in   Mostly Cloudy
8:53 PM 46.9 °F 41.0 °F 80% 29.60 in 7.0 mi ENE 18.4 mph - 0.06 in Rain Light Rain
9:04 PM 46.9 °F 41.0 °F 80% 29.68 in 10.0 mi East 15.0 mph - 0.00 in Rain Light Rain
9:53 PM 48.9 °F 39.9 °F 71% 29.59 in 10.0 mi Calm Calm - 0.00 in   Overcast
10:53 PM 48.0 °F 39.9 °F 74% 29.58 in 10.0 mi Calm Calm - N/A   Overcast
11:53 PM 48.9 °F 39.0 °F 69% 29.58 in 10.0 mi Calm Calm - N/A   Overcast